Temp
67 69 68 67 67 67 66 66 67 66 67 67 67 68 68 71 71 69 70 71 71 68 69 72 72 70 70 70 70 70 69 71 70 70 69 68 67 67 67 67 67 67
66 69 69 68 67 68 66 66 67 67 67 67 67 68 70 71 71 70 69 71 70 68 70 70 72 70 70 70 69 69 70 69 68 71 67 66 67 67 67 67 67 67
66 67 66 65 65 67 68 68 68 68 68 69 69 69 70 71 70 70 70 70 70 70 70 70 71 71 70 69 70 70 69 69 68 70 69 67 67 67 67 67 66 67
67 66 67 67 66 66 67 67 67 68 68 68 68 68 69 71 70 70 69 71 70 70 70 70 71 72 72 71 70 69 70 69 70 70 67 67 68 67 67 67 67 66
66 67 67 67 67 67 66 66 66 67 67 67 68 69 69 69 68 69 69 68 66 66 69 70 71 71 72 72 71 70 71 70 70 71 70 69 68 68 67 67 66 66
66 66 67 66 66 66 65 65 66 66 67 67 67 68 68 68 68 68 68 68 69 67 68 69 70 71 71 71 70 70 70 70 71 71 70 69 69 68 68 67 66 66
65 65 65 65 65 65 65 65 66 67 66 67 67 67 67 67 67 68 68 69 69 70 70 70 70 70 70 70 70 69 69 70 70 69 68 68 69 67 68 68 67 66
64 64 64 64 64 64 64 65 65 65 66 66 66 67 67 67 67 67 67 68 67 68 69 68 68 69 70 69 69 69 69 71 69 67 67 68 69 67 67 68 68 67
63 63 64 64 63 63 64 64 65 66 67 66 65 65 66 66 66 67 67 67 67 66 66 67 68 68 69 69 68 68 69 70 70 67 67 67 67 67 68 69 69 69
63 63 63 63 63 63 63 64 65 65 66 65 65 65 65 67 67 67 67 66 66 67 67 67 67 67 68 68 68 68 68 68 68 67 67 68 68 68 68 69 69 69
62 63 63 62 63 63 63 64 65 66 66 67 66 66 66 66 67 67 66 66 66 67 66 67 67 67 67 68 68 69 69 68 68 67 67 68 69 70 69 70 69 69
62 63 62 63 63 63 63 64 65 66 66 67 67 66 67 67 67 66 67 66 67 67 66 66 66 66 67 66 67 68 68 68 69 68 68 68 68 69 70 71 70 69
62 63 62 62 63 63 63 64 65 66 67 67 68 68 67 66 67 67 67 67 67 67 67 66 66 66 66 67 68 68 68 68 68 68 68 69 69 69 70 70 71 71
62 63 63 63 63 64 63 64 64 65 66 67 68 68 67 67 67 66 66 66 66 67 68 67 66 66 66 67 67 68 67 68 67 67 67 68 68 69 69 70 71 72
63 63 64 64 64 63 63 63 64 64 65 67 67 67 68 68 67 67 66 65 66 66 67 67 67 67 67 67 66 66 66 67 67 67 67 67 68 69 69 69 70 71
63 64 64 63 62 62 62 63 63 64 65 66 67 67 67 67 67 66 66 65 65 66 66 66 67 67 64 59 61 63 63 64 65 66 67 67 67 68 68 69 69 70
63 63 62 62 62 62 62 63 63 64 65 66 66 66 66 66 66 65 65 65 65 65 65 66 66 67 61 60 62 63 63 63 64 66 67 67 68 68 67 68 69 70
63 63 62 62 62 62 62 63 64 65 65 65 65 65 65 66 65 65 65 65 65 65 65 65 66 62 58 59 61 61 62 63 64 66 67 67 67 68 68 68 68 68
63 63 63 62 62 62 62 63 63 64 64 64 64 65 65 64 64 64 64 64 64 65 65 65 66 61 58 59 60 59 60 63 64 66 67 66 66 67 68 68 67 66
62 63 63 63 62 62 62 62 63 63 64 64 64 65 64 64 64 63 63 63 64 65 64 65 66 59 57 57 57 57 59 62 66 67 67 66 66 66 67 68 67 66
61 61 62 63 63 62 62 62 63 64 64 64 63 63 63 63 63 63 64 65 64 65 65 64 66 58 57 56 56 56 58 63 67 68 67 66 66 67 66 66 67 67
61 61 62 63 63 63 63 63 64 64 64 64 64 63 64 64 64 63 64 63 64 65 64 64 65 58 56 56 56 56 60 66 66 67 66 66 66 66 67 67 67 67
62 62 62 63 63 63 63 63 63 64 64 65 63 63 63 64 64 64 64 63 64 65 64 63 64 60 55 54 55 56 61 66 65 65 66 66 66 66 66 67 67 67
62 62 63 63 63 63 63 64 64 63 63 65 62 62 62 64 65 64 64 64 65 64 65 64 64 60 54 53 55 56 59 64 64 63 63 63 62 63 65 65 67 67
62 63 63 63 63 64 64 64 63 63 64 64 62 63 63 63 65 64 64 64 65 65 66 65 64 62 55 53 54 55 61 64 63 63 62 62 62 61 61 61 60 60
63 64 64 63 63 64 64 64 64 64 63 63 64 63 63 62 63 63 63 63 64 64 65 64 64 64 61 52 52 55 57 63 64 63 61 61 62 61 60 60 59 59
MSLP
1014.22 1014.18 1014.18 1014.02 1013.78 1013.50 1013.46 1013.66 1013.54 1013.34 1013.10 1012.94 1013.02 1012.86 1012.74 1012.42 1012.30 1012.38 1012.34 1012.14 1012.30 1012.30 1012.10 1012.18 1012.30 1012.34 1011.94 1012.06 1012.26 1012.62 1013.22 1013.02 1012.78 1012.86 1013.10 1013.38 1013.58 1013.86 1014.26 1014.42 1014.42 1014.46
1014.06 1013.86 1013.66 1013.54 1013.46 1013.18 1013.14 1013.18 1012.94 1012.86 1012.82 1012.66 1012.50 1012.30 1012.14 1012.06 1012.02 1011.98 1012.02 1011.98 1012.02 1011.98 1011.46 1011.34 1011.42 1011.90 1012.06 1011.86 1011.98 1012.26 1012.42 1012.58 1012.58 1012.38 1012.98 1013.62 1013.46 1013.50 1013.70 1013.78 1013.90 1013.98
1014.02 1013.90 1013.74 1013.38 1013.18 1013.22 1012.98 1012.74 1012.66 1012.54 1012.54 1012.34 1012.26 1012.22 1012.10 1011.98 1011.90 1011.70 1011.66 1011.70 1011.58 1011.62 1011.46 1011.10 1011.06 1011.02 1011.10 1011.14 1011.30 1011.62 1011.90 1012.10 1012.42 1012.22 1012.50 1012.90 1012.94 1012.94 1012.98 1013.18 1013.42 1013.54
1013.94 1013.90 1013.70 1013.46 1013.22 1013.18 1012.98 1012.90 1012.82 1012.78 1012.62 1012.58 1012.46 1012.22 1012.06 1011.90 1011.74 1011.62 1011.50 1011.42 1011.42 1011.42 1011.26 1010.82 1010.66 1010.58 1010.58 1010.70 1010.90 1011.10 1011.30 1011.46 1011.42 1011.58 1012.14 1012.54 1012.50 1012.30 1012.34 1012.46 1012.66 1012.98
1014.02 1013.86 1013.70 1013.50 1013.26 1013.18 1013.10 1013.06 1012.86 1012.66 1012.54 1012.38 1012.10 1011.90 1011.78 1011.70 1011.66 1011.58 1011.50 1011.62 1012.14 1012.26 1011.54 1010.78 1010.30 1010.18 1010.06 1010.14 1010.26 1010.46 1010.50 1010.74 1010.78 1010.98 1011.30 1011.46 1011.38 1011.58 1011.70 1011.90 1012.06 1012.26
1013.86 1013.74 1013.62 1013.50 1013.34 1013.18 1013.10 1012.98 1012.78 1012.66 1012.50 1012.30 1012.02 1011.70 1011.46 1011.30 1011.26 1011.22 1011.22 1011.22 1011.22 1011.46 1011.30 1010.54 1010.18 1009.82 1009.74 1009.82 1009.98 1010.06 1010.10 1010.26 1010.18 1010.42 1010.74 1010.86 1010.86 1010.94 1011.10 1011.30 1011.46 1011.58
1013.86 1013.66 1013.50 1013.30 1013.22 1013.10 1012.98 1012.78 1012.58 1012.38 1012.18 1011.98 1011.78 1011.66 1011.38 1011.22 1011.10 1010.98 1010.90 1010.82 1010.70 1010.54 1010.30 1009.94 1009.66 1009.54 1009.46 1009.58 1009.74 1009.78 1009.78 1009.86 1009.86 1009.98 1010.46 1010.58 1010.50 1010.66 1010.70 1010.70 1010.86 1010.98
1013.78 1013.54 1013.34 1013.14 1013.06 1012.94 1012.86 1012.70 1012.50 1012.30 1012.02 1011.82 1011.78 1011.54 1011.42 1011.30 1011.14 1010.98 1010.90 1010.82 1010.74 1010.42 1010.02 1009.58 1009.18 1008.98 1008.98 1009.22 1009.34 1009.34 1009.30 1009.34 1009.54 1009.66 1009.82 1009.86 1009.86 1010.38 1010.62 1010.42 1010.34 1010.50
1013.62 1013.54 1013.30 1013.10 1012.94 1012.78 1012.70 1012.50 1012.34 1012.10 1011.82 1011.74 1011.58 1011.46 1011.26 1011.22 1011.06 1010.90 1010.74 1010.62 1010.50 1010.22 1009.94 1009.58 1009.06 1008.66 1008.46 1008.58 1008.74 1008.90 1008.98 1008.98 1008.98 1009.50 1009.58 1009.46 1009.38 1009.54 1010.10 1010.02 1010.02 1010.18
1013.46 1013.38 1013.26 1013.10 1012.90 1012.66 1012.50 1012.30 1012.14 1011.90 1011.62 1011.54 1011.34 1011.18 1011.14 1010.90 1010.78 1010.66 1010.50 1010.34 1010.18 1009.82 1009.42 1009.14 1008.86 1008.50 1008.26 1008.10 1008.22 1008.30 1008.42 1008.50 1008.66 1009.06 1009.30 1009.18 1008.98 1009.10 1009.22 1009.38 1009.46 1009.66
1013.38 1013.26 1013.18 1013.02 1012.86 1012.58 1012.38 1012.14 1011.94 1011.74 1011.46 1011.30 1011.14 1011.02 1010.86 1010.70 1010.54 1010.34 1010.22 1009.98 1009.78 1009.50 1009.26 1008.90 1008.58 1008.58 1008.54 1008.02 1007.82 1007.78 1007.82 1007.98 1008.14 1008.22 1008.26 1008.22 1008.14 1008.18 1008.34 1008.62 1008.82 1008.82
1013.34 1013.22 1013.06 1012.94 1012.78 1012.58 1012.38 1012.14 1011.86 1011.66 1011.38 1011.14 1010.94 1010.86 1010.66 1010.54 1010.38 1010.18 1009.98 1009.74 1009.38 1008.98 1008.78 1008.70 1008.42 1008.26 1008.06 1008.06 1007.98 1007.62 1007.58 1007.58 1007.58 1007.58 1007.58 1007.58 1007.46 1007.46 1007.54 1007.58 1007.82 1008.06
1013.34 1013.10 1012.94 1012.82 1012.66 1012.50 1012.26 1012.06 1011.78 1011.54 1011.30 1011.06 1010.78 1010.66 1010.58 1010.46 1010.22 1010.02 1009.74 1009.50 1009.14 1008.78 1008.34 1008.18 1008.02 1007.82 1007.74 1007.54 1007.30 1007.22 1007.14 1007.10 1007.14 1007.14 1007.10 1006.98 1006.78 1006.66 1006.66 1006.70 1006.70 1006.90
1013.14 1012.98 1012.86 1012.66 1012.46 1012.26 1012.14 1011.90 1011.62 1011.34 1011.10 1010.86 1010.66 1010.58 1010.42 1010.26 1010.14 1009.86 1009.50 1009.26 1008.94 1008.62 1008.22 1007.82 1007.70 1007.62 1007.42 1007.22 1007.06 1006.98 1006.98 1006.86 1006.70 1006.66 1006.58 1006.42 1006.18 1005.94 1005.90 1005.90 1005.86 1005.86
1012.90 1012.74 1012.62 1012.50 1012.34 1012.14 1011.94 1011.74 1011.50 1011.18 1010.86 1010.58 1010.46 1010.38 1010.18 1010.02 1009.86 1009.66 1009.42 1009.10 1008.78 1008.50 1008.18 1007.82 1007.58 1007.34 1007.14 1007.22 1007.26 1006.98 1006.74 1006.54 1006.26 1006.10 1005.94 1005.74 1005.38 1005.06 1004.94 1004.98 1004.98 1004.98
1012.66 1012.54 1012.42 1012.34 1012.26 1012.10 1011.86 1011.66 1011.38 1011.06 1010.74 1010.50 1010.34 1010.22 1010.10 1009.90 1009.74 1009.54 1009.34 1009.10 1008.74 1008.34 1008.06 1007.78 1007.50 1007.30 1007.14 1007.06 1006.98 1006.90 1006.62 1006.34 1005.98 1005.58 1005.26 1004.90 1004.54 1004.22 1004.06 1004.06 1004.10 1004.22
1012.42 1012.30 1012.26 1012.22 1012.06 1011.90 1011.70 1011.54 1011.30 1011.06 1010.82 1010.54 1010.30 1010.14 1009.98 1009.78 1009.66 1009.50 1009.22 1008.98 1008.66 1008.34 1008.02 1007.70 1007.50 1007.30 1007.34 1007.18 1006.58 1006.34 1006.30 1006.02 1005.46 1004.90 1004.54 1004.18 1003.70 1003.46 1003.38 1003.42 1003.50 1003.62
1012.18 1012.10 1012.14 1011.98 1011.82 1011.70 1011.54 1011.34 1011.22 1010.98 1010.82 1010.62 1010.34 1010.10 1009.82 1009.58 1009.54 1009.38 1009.14 1008.90 1008.54 1008.22 1007.98 1007.70 1007.42 1007.34 1007.38 1007.02 1006.50 1006.10 1005.70 1005.38 1004.82 1004.42 1004.02 1003.70 1003.22 1002.78 1002.78 1002.90 1003.10 1003.30
1011.98 1011.98 1011.94 1011.82 1011.62 1011.46 1011.30 1011.22 1011.14 1010.98 1010.74 1010.54 1010.26 1009.94 1009.74 1009.58 1009.38 1009.26 1009.02 1008.74 1008.46 1008.22 1007.94 1007.62 1007.42 1007.26 1007.10 1006.54 1006.14 1005.74 1005.22 1004.70 1004.18 1003.74 1003.58 1003.34 1002.90 1002.50 1002.38 1002.58 1002.78 1003.06
1011.82 1011.82 1011.78 1011.62 1011.42 1011.22 1011.10 1011.10 1011.02 1010.82 1010.50 1010.30 1009.98 1009.62 1009.58 1009.38 1009.14 1009.06 1008.82 1008.66 1008.38 1008.14 1007.90 1007.62 1007.38 1007.26 1006.94 1006.46 1005.86 1005.34 1004.70 1004.10 1003.66 1003.38 1003.18 1002.94 1002.66 1002.46 1002.26 1002.38 1002.66 1002.94
1011.78 1011.70 1011.62 1011.42 1011.26 1011.10 1010.98 1010.86 1010.78 1010.58 1010.26 1010.02 1009.86 1009.66 1009.50 1009.34 1009.10 1008.98 1008.78 1008.66 1008.38 1008.14 1007.98 1007.78 1007.50 1007.30 1006.90 1006.38 1005.86 1005.18 1004.46 1003.86 1003.50 1003.14 1003.10 1002.90 1002.78 1002.62 1002.46 1002.42 1002.54 1002.66
1011.62 1011.46 1011.38 1011.26 1011.10 1010.98 1010.86 1010.70 1010.50 1010.34 1010.14 1009.82 1009.58 1009.34 1009.18 1009.06 1008.86 1008.74 1008.66 1008.62 1008.38 1008.14 1008.02 1007.90 1007.54 1007.30 1006.94 1006.38 1005.78 1005.02 1004.22 1003.62 1003.42 1003.14 1003.06 1003.06 1003.02 1002.86 1002.74 1002.70 1002.62 1002.74
1011.38 1011.34 1011.22 1011.10 1010.98 1010.86 1010.74 1010.54 1010.38 1010.14 1009.86 1009.58 1009.50 1009.22 1009.10 1008.90 1008.70 1008.54 1008.46 1008.50 1008.30 1008.14 1008.06 1007.86 1007.62 1007.34 1007.02 1006.50 1005.90 1005.18 1004.30 1003.86 1003.58 1003.22 1003.14 1003.18 1003.26 1002.94 1002.90 1002.86 1002.74 1002.86
1011.30 1011.26 1011.14 1011.02 1010.90 1010.78 1010.58 1010.34 1010.18 1010.02 1009.82 1009.46 1009.50 1009.26 1008.98 1008.70 1008.50 1008.46 1008.42 1008.50 1008.26 1008.10 1007.98 1007.90 1007.70 1007.46 1007.22 1006.74 1006.22 1005.54 1004.90 1004.50 1004.18 1003.82 1003.82 1003.86 1003.82 1003.54 1003.30 1003.10 1003.02 1003.10
1011.22 1011.10 1010.98 1010.86 1010.78 1010.54 1010.34 1010.22 1010.02 1009.86 1009.58 1009.38 1009.30 1009.06 1008.78 1008.54 1008.46 1008.50 1008.50 1008.50 1008.34 1007.98 1007.90 1007.90 1007.78 1007.58 1007.46 1007.14 1006.62 1006.06 1005.50 1005.02 1004.70 1004.54 1004.50 1004.46 1004.26 1004.18 1004.06 1003.94 1003.90 1004.02
1010.94 1010.90 1010.78 1010.66 1010.50 1010.30 1010.10 1009.94 1009.78 1009.62 1009.42 1009.34 1009.10 1009.02 1008.86 1008.58 1008.46 1008.54 1008.62 1008.46 1008.34 1008.18 1007.98 1007.90 1007.82 1007.70 1007.62 1007.46 1007.10 1006.70 1006.30 1005.50 1005.10 1005.02 1005.18 1004.94 1004.66 1004.62 1004.62 1004.58 1004.46 1004.66
Wind_Speed
2 1 1 2 4 5 5 4 3 3 5 5 5 7 7 7 3 1 4 9 4 3 8 10 6 4 7 7 6 6 9 11 10 10 12 11 12 14 13 13 12 11
2 3 4 4 1 2 3 5 5 6 6 6 6 7 7 7 5 5 5 8 6 9 11 10 8 7 7 7 9 10 10 7 10 9 8 13 13 13 13 13 12 11
2 3 4 6 3 5 5 5 5 7 7 7 7 6 7 5 7 7 8 8 10 9 9 9 9 8 8 8 8 8 9 10 12 13 8 11 12 11 12 12 11 13
3 2 5 5 4 4 4 5 5 5 5 5 6 6 6 5 5 7 7 9 9 9 10 10 10 10 9 8 8 8 9 11 12 12 12 13 12 12 12 11 12 11
3 4 4 5 5 4 3 5 6 6 6 6 6 6 6 5 6 7 7 6 8 11 12 12 11 10 10 10 10 10 10 9 10 11 12 13 12 12 11 11 12 13
3 3 3 3 4 5 5 5 6 5 6 7 7 7 7 6 6 7 7 9 8 9 13 12 12 11 10 10 9 9 9 8 8 10 11 12 11 11 10 11 12 13
4 4 4 3 3 4 5 6 6 7 6 6 6 7 7 7 8 8 8 8 10 11 11 12 12 12 10 9 9 10 9 9 8 8 10 11 11 11 11 12 12 13
3 3 4 3 3 4 5 5 6 6 6 6 6 6 5 7 7 7 7 8 9 10 11 11 12 13 11 9 9 10 10 8 7 9 11 12 12 8 13 11 11 12
3 3 4 5 5 5 5 6 6 6 6 5 6 6 6 6 6 6 6 8 8 10 11 11 12 13 12 9 7 7 8 8 7 7 10 13 12 13 11 13 12 12
5 4 4 5 6 5 6 6 6 6 6 5 6 6 7 7 6 6 6 6 8 9 9 11 12 12 12 9 8 8 10 10 8 9 9 10 11 11 12 11 13 13
7 6 5 6 6 6 7 6 6 7 6 6 6 6 6 7 7 6 7 7 8 8 9 10 9 8 10 11 8 7 8 8 9 8 9 10 10 10 11 12 14 16
7 6 6 6 6 7 7 7 6 7 7 7 6 7 7 6 7 7 7 8 9 10 8 9 8 8 9 7 8 8 7 8 9 9 10 11 11 12 13 12 13 15
6 7 6 6 6 7 7 7 6 6 7 7 7 7 7 7 7 7 7 7 9 9 8 7 7 7 8 9 8 8 9 9 9 10 11 11 12 14 14 14 15 15
6 6 6 6 6 6 6 7 6 6 6 6 6 7 7 6 7 7 7 7 8 8 8 6 7 9 10 9 8 8 9 10 10 11 12 14 15 15 14 14 16 16
6 5 5 5 6 6 6 6 7 6 6 6 6 6 6 6 6 6 7 8 7 7 7 7 6 8 7 4 5 8 9 10 11 12 14 16 17 16 15 15 15 15
5 5 4 4 5 5 6 6 6 7 7 7 7 7 7 7 6 6 6 7 8 7 7 7 6 5 6 10 9 6 7 9 10 12 13 14 15 15 14 14 15 14
5 4 4 4 4 5 5 6 6 7 8 8 7 7 7 6 5 7 7 7 7 7 7 7 6 6 11 13 13 14 10 10 12 12 12 14 14 14 13 13 13 14
5 4 4 5 4 4 5 5 6 6 7 7 8 9 7 6 6 6 7 6 6 7 7 7 7 10 13 12 14 15 16 11 10 9 9 9 11 13 12 12 13 13
4 4 4 5 6 5 5 5 6 7 7 7 8 8 7 7 7 5 7 7 6 7 8 7 6 12 14 16 16 15 15 13 8 8 6 8 8 9 10 9 10 9
4 4 4 5 6 5 5 5 6 7 7 6 7 7 6 7 8 6 6 6 6 6 7 7 6 12 16 16 17 18 16 11 8 7 5 4 4 4 6 9 9 10
4 3 4 5 5 5 5 6 6 7 8 7 6 7 6 7 8 6 6 6 6 5 5 7 6 12 16 17 17 17 17 11 8 6 2 2 4 2 3 6 9 9
4 4 5 5 5 5 5 6 6 7 8 7 7 6 5 5 6 4 5 5 5 5 5 6 6 12 16 17 18 19 18 7 7 5 3 2 2 3 3 5 6 7
4 4 5 6 5 5 5 6 6 8 8 6 6 6 5 5 5 4 4 5 4 4 6 6 6 10 15 17 18 20 15 7 7 4 4 3 1 1 2 3 4 6
5 4 5 6 6 6 6 6 5 5 6 5 5 7 7 5 5 4 4 5 3 4 5 6 6 8 14 16 18 21 16 10 7 7 8 7 6 6 4 4 6 13
5 5 5 5 5 6 5 5 5 6 7 6 4 4 6 5 4 3 3 4 4 2 5 6 5 7 12 14 17 19 16 10 8 8 8 7 7 9 8 7 10 12
5 5 6 5 5 5 5 4 4 5 5 6 6 4 7 5 3 2 3 4 5 4 4 4 4 5 7 12 13 16 16 11 9 10 9 9 8 8 9 10 11 10
Wind_Direction
345 2 246 244 242 241 256 275 292 265 264 254 252 257 247 252 226 61 303 287 300 286 259 268 267 212 209 216 222 241 251 242 236 232 219 210 215 211 210 211 208 209
158 183 191 214 221 237 217 200 230 246 240 243 244 249 257 265 235 202 232 255 194 214 244 248 248 214 215 193 205 216 216 210 240 238 191 215 219 206 208 207 207 210
173 210 245 266 233 192 222 233 246 256 249 245 256 267 271 261 264 261 253 254 265 250 240 238 238 238 227 224 215 199 205 211 218 232 222 208 208 200 201 198 203 204
317 285 286 283 279 287 266 268 265 253 256 258 247 243 244 252 255 260 252 255 266 272 267 257 248 247 244 229 221 216 197 204 211 209 208 214 214 205 200 194 198 201
330 331 325 317 319 318 309 294 297 298 292 284 286 278 271 270 269 263 257 240 228 252 261 256 252 244 240 244 237 239 232 218 210 209 210 214 211 203 204 195 198 202
340 335 325 313 307 308 301 288 279 279 282 286 282 286 281 278 270 268 270 269 254 229 238 246 248 247 238 232 229 231 231 230 225 211 212 223 224 211 206 200 200 206
337 338 329 317 301 286 283 284 287 288 283 273 282 281 286 290 288 283 282 277 272 268 263 261 258 254 243 230 227 232 231 230 226 196 207 226 231 224 221 205 203 207
328 320 316 313 303 288 287 287 287 284 280 282 270 278 278 278 281 286 286 283 275 270 267 260 257 258 253 241 237 235 239 235 214 193 197 214 222 208 217 221 210 211
325 323 324 321 318 312 304 302 298 293 286 274 276 282 279 271 276 279 284 285 273 264 263 261 255 254 251 242 232 234 242 239 227 217 220 221 221 228 222 218 215 214
327 319 320 317 314 307 302 302 300 296 291 274 272 277 283 282 275 288 284 269 276 276 270 264 261 255 252 239 222 214 226 234 235 208 210 222 224 221 219 213 215 217
317 318 315 312 307 306 304 306 313 308 300 287 278 275 278 282 286 284 287 290 287 279 265 261 254 268 269 255 244 229 221 220 219 222 224 228 228 226 221 217 217 216
310 310 308 304 304 306 306 308 311 310 304 290 278 273 276 280 287 285 283 290 285 288 262 252 244 234 237 236 242 242 245 242 245 242 235 233 234 233 232 226 220 216
297 294 296 298 298 297 299 300 299 294 287 280 276 273 280 285 286 289 295 296 297 300 295 261 259 254 253 245 238 242 251 258 256 252 249 246 240 233 227 226 223 216
283 283 288 286 283 287 292 290 293 294 288 279 274 273 276 279 288 297 302 301 302 303 306 282 245 245 247 249 254 258 258 255 254 253 253 251 248 240 232 225 223 220
280 279 275 279 284 285 287 296 300 302 300 297 290 285 281 284 292 294 304 307 307 308 310 305 288 270 253 272 291 284 270 265 264 264 264 260 251 241 231 224 221 217
271 270 274 280 284 285 289 292 300 308 308 308 307 298 291 294 295 297 300 304 310 315 315 316 315 307 318 313 287 265 263 264 264 263 264 262 254 242 231 222 219 215
271 260 267 278 276 283 295 302 306 310 312 314 310 301 296 296 299 305 306 305 307 312 315 322 324 332 331 312 314 306 286 264 260 262 264 268 255 236 229 221 218 213
267 265 272 277 286 288 299 303 300 308 307 307 306 304 305 303 302 298 298 300 300 313 319 323 333 349 334 320 315 306 297 271 261 258 266 274 269 243 226 219 213 210
268 273 278 280 280 282 288 295 298 296 297 302 303 304 306 306 297 296 293 298 305 324 332 337 340 347 337 333 327 314 299 293 277 264 263 267 265 250 218 205 196 183
272 276 282 278 277 282 285 291 292 289 285 280 282 290 297 300 298 300 294 298 309 323 329 329 333 347 336 332 330 325 319 306 281 270 273 290 278 267 218 187 177 162
285 280 286 288 281 277 286 287 286 289 293 293 290 291 293 287 288 302 296 297 302 316 329 330 332 342 338 336 334 329 324 316 301 271 250 2 342 258 136 150 158 163
283 295 296 296 288 282 286 293 299 297 297 300 297 291 277 270 280 286 288 300 306 335 333 338 333 346 342 342 341 339 329 316 317 291 153 81 41 17 111 138 135 137
284 287 295 296 294 291 292 299 304 306 307 305 308 299 290 277 269 278 288 294 323 346 338 331 336 350 349 350 348 349 353 342 346 345 106 103 61 139 72 106 116 125
292 292 296 299 299 293 292 294 294 287 284 298 307 303 297 268 262 287 311 300 330 355 335 337 338 355 358 354 356 358 1 1 4 25 52 43 34 35 40 69 112 118
293 297 299 301 296 290 287 293 294 289 292 303 299 302 291 275 271 289 316 312 307 353 335 342 344 353 8 1 4 6 3 2 7 30 44 42 48 46 38 44 56 48
293 305 304 299 291 294 297 291 290 302 308 311 324 340 319 299 279 298 310 305 312 339 354 333 341 352 17 10 12 14 360 9 8 34 25 35 43 51 50 37 50 50